This demonstration page uses our WeatherBlox Daily Observations layout. Learn more.

39.92423, -83.80882

Hourly Observations for August 18, 2017

Temp ( °F °C ) Dew Point ( °F °C ) Humidity (%) Winds ( mph kmh ) Pressure ( in mb ) Visibility ( mi km ) Precip ( " mm )
12:36 am 00:36 Mostly Clear 73 23 72 22 94 94 SW 6 9 29.85 1011 10 16.0934 0 0
12:56 am 00:56 Mostly Clear 73 22.8 72 22.2 96 96 SW 6 9 29.84 1010 10 16.0934 0 0
1:28 am 01:28 Partly Cloudy 73 23 72 22 94 94 SW 7 11 29.83 1010 10 16.0934 0 0
1:37 am 01:37 Mostly Cloudy 73 23 72 22 94 94 SW 7 11 29.83 1010 10 16.0934 0 0
1:56 am 01:56 Cloudy 73 22.8 72 22.2 96 96 SW 9 15 29.83 1010 10 16.0934 0 0
2:56 am 02:56 Cloudy with Mist and Fog 72 22.2 71 21.7 97 97 SSW 6 9 29.82 1010 6 9.65604 0 0
3:56 am 03:56 Cloudy with Mist and Fog 72 22.2 72 22.2 100 100 WSW 6 9 29.82 1010 6 9.65604 0 0
4:05 am 04:05 Mostly Cloudy 72 22 72 22 100 100 SW 7 11 29.8 1009 7 11.26538 0 0
4:20 am 04:20 Mostly Cloudy 73 23 72 22 94 94 WSW 8 13 29.8 1009 9 14.48406 0 0
4:56 am 04:56 Mostly Cloudy 72 22.2 71 21.7 97 97 SW 7 11 29.83 1010 10 16.0934 0 0
5:10 am 05:10 Mostly Cloudy 72 22 72 22 100 100 SW 6 9 29.83 1010 9 14.48406 0 0
5:35 am 05:35 Mostly Cloudy 72 22 70 21 94 94 WSW 6 9 29.83 1010 9 14.48406 0 0
5:56 am 05:56 Mostly Clear 71 21.7 70 21.1 96 96 WSW 7 11 29.85 1011 8 12.87472 0 0
6:56 am 06:56 Sunny with Mist and Fog 70 21.1 69 20.6 97 97 SSW 5 7 29.85 1011 6 9.65604 0 0
7:52 am 07:52 Partly Cloudy with Mist and Fog 72 22 70 21 94 94 WSW 7 11 29.85 1011 6 9.65604 0 0
7:56 am 07:56 Mostly Sunny 71 21.7 70 21.1 96 96 WSW 7 11 29.85 1011 7 11.26538 0 0
8:56 am 08:56 Mostly Cloudy 73 22.8 69 20.6 87 87 W 9 15 29.87 1011 10 16.0934 0 0
9:21 am 09:21 Partly Cloudy 73 23 68 20 83 83 W 13 20 29.85 1011 10 16.0934 0 0
9:56 am 09:56 Mostly Sunny 75 23.9 68 20 79 79 W 12 19 29.87 1012 10 16.0934 0 0
10:38 am 10:38 Mostly Cloudy 77 25 68 20 74 74 W 10 17 29.83 1010 10 16.0934 0 0
10:46 am 10:46 Partly Cloudy 77 25 66 19 69 69 W 13 20 29.83 1010 10 16.0934 0 0
10:56 am 10:56 Mostly Sunny 78 25.6 67 19.4 69 69 W 12 19 29.87 1012 10 16.0934 0 0
11:56 am 11:56 Partly Cloudy 79 26.1 66 18.9 65 65 W 12 19 29.88 1012 10 16.0934 0 0
12:56 pm 12:56 Mostly Cloudy 79 26.1 65 18.3 62 62 WSW 15 24 29.88 1012 10 16.0934 0 0
1:56 pm 13:56 Mostly Cloudy 80 26.7 66 18.9 62 62 WNW 15 24 29.88 1012 10 16.0934 0 0
2:56 pm 14:56 Mostly Cloudy 82 27.8 66 18.9 58 58 WSW 14 22 29.88 1012 10 16.0934 0 0
3:56 pm 15:56 Sunny 82 27.8 66 18.9 58 58 W 13 20 29.88 1012 10 16.0934 0 0
4:56 pm 16:56 Mostly Cloudy 79 26.1 65 18.3 62 62 W 10 17 29.87 1012 10 16.0934 0 0
5:56 pm 17:56 Mostly Cloudy 81 27.2 65 18.3 58 58 W 10 17 29.88 1012 10 16.0934 0 0
6:56 pm 18:56 Partly Cloudy 79 26.1 65 18.3 62 62 W 8 13 29.87 1012 10 16.0934 0 0
7:56 pm 19:56 Sunny 76 24.4 64 17.8 67 67 WSW 9 15 29.89 1012 10 16.0934 0 0
8:56 pm 20:56 Clear 71 21.7 64 17.8 79 79 WSW 7 11 29.89 1012 10 16.0934 0 0
9:56 pm 21:56 Clear 68 20 64 17.8 87 87 WSW 7 11 29.91 1013 10 16.0934 0 0
10:56 pm 22:56 Clear 68 20 64 17.8 87 87 WSW 8 13 29.91 1013 10 16.0934 0 0
11:56 pm 23:56 Clear 68 20 64 17.8 87 87 WSW 8 13 29.92 1013 10 16.0934 0 0

Powered by AerisWeather